Weather History for Dundee, United Kingdom

Change the Weather History Date:

Tuesday, July 16, 2013

  Actual Average Record
Temperature  
Mean Temperature 68 °F -  
Max Temperature 75 °F 65 °F 77 °F (2006)
Min Temperature 62 °F 55 °F 48 °F (1996)
Cooling Degree Days 4    
Growing Degree Days 18 (Base 50)    
Moisture  
Dew Point 59 °F    
Average Humidity 67    
Maximum Humidity 88    
Minimum Humidity 57    
Precipitation  
Precipitation 0.00 in - - ()
Sea Level Pressure  
Sea Level Pressure 30.15 in    
Wind  
Wind Speed 12 mph ()    
Max Wind Speed 23 mph    
Max Gust Speed -    
Visibility 6.2 miles    
Events      
Averages and records for this station are not official NWS values.
T = Trace of Precipitation, MM = Missing Value Source: Averaged Metar Reports

Daily Weather History Graph

Daily Weather History Graph

Search for Another Location

Airport:

Trip Planner

Search our weather history database for the weather conditions in past years. The results will help you decide how hot, cold, wet, or windy it might be!

Date:

Astronomy

Jul. 16, 2013 Rise Set
Actual Time 4:45 AM BST 9:49 PM BST
Civil Twilight 3:48 AM BST 10:46 PM BST
Nautical Twilight 1:43 AM BST 12:43 AM BST
Astronomical Twilight Sun does not rise Sun does not rise
Moon 2:42 PM BST (7/16) No Moon Set
Length of Visible Light 18h 57m
Length of Day
17h 04m
First Quarter, 54% of the Moon is Illuminated
Jul 16
First Quarter
Jul 22
Full
Jul 29
Last Quarter
Aug 6
New
Aug 14
First Quarter

Hourly Weather History & Observations

Time (BST) Temp. Dew Point Humidity Pressure Visibility Wind Dir Wind Speed Gust Speed Precip Events Conditions
7:20 AM 62.6 °F 59.0 °F 88% 30.15 in 6.2 mi West 9.2 mph - N/A   Partly Cloudy
7:50 AM 64.4 °F 59.0 °F 83% 30.15 in 6.2 mi WSW 11.5 mph - N/A   Partly Cloudy
8:20 AM 64.4 °F 60.8 °F 88% 30.15 in 6.2 mi WSW 10.4 mph - N/A   Partly Cloudy
8:50 AM 68.0 °F 60.8 °F 78% 30.15 in 6.2 mi SW 8.1 mph - N/A   Partly Cloudy
9:20 AM 68.0 °F 60.8 °F 78% 30.15 in 6.2 mi SW 5.8 mph - N/A   Partly Cloudy
9:50 AM 68.0 °F 60.8 °F 78% 30.15 in 6.2 mi West 18.4 mph - N/A   Partly Cloudy
10:20 AM 69.8 °F 60.8 °F 73% 30.15 in 6.2 mi WSW 16.1 mph - N/A   Partly Cloudy
10:50 AM 69.8 °F 60.8 °F 73% 30.15 in 6.2 mi WSW 13.8 mph - N/A   Partly Cloudy
11:20 AM 71.6 °F 59.0 °F 64% 30.15 in 6.2 mi WSW 17.3 mph - N/A   Partly Cloudy
11:50 AM 71.6 °F 60.8 °F 69% 30.15 in 6.2 mi WSW 15.0 mph - N/A   Partly Cloudy
12:20 PM 73.4 °F 60.8 °F 65% 30.15 in 6.2 mi WSW 11.5 mph - N/A   Partly Cloudy
12:50 PM 73.4 °F 59.0 °F 61% 30.15 in 6.2 mi WSW 16.1 mph - N/A   Partly Cloudy
1:20 PM 71.6 °F 60.8 °F 69% 30.15 in 6.2 mi SW 19.6 mph - N/A   Partly Cloudy
1:50 PM 73.4 °F 60.8 °F 65% 30.15 in 6.2 mi WSW 20.7 mph - N/A   Partly Cloudy
2:20 PM 75.2 °F 60.8 °F 61% 30.15 in 6.2 mi WSW 20.7 mph - N/A   Partly Cloudy
2:50 PM 75.2 °F 60.8 °F 61% 30.15 in 6.2 mi WSW 20.7 mph - N/A   Partly Cloudy
3:20 PM 73.4 °F 59.0 °F 61% 30.15 in 6.2 mi WSW 23.0 mph - N/A   Partly Cloudy
3:50 PM 73.4 °F 59.0 °F 61% 30.15 in 6.2 mi WSW 19.6 mph - N/A   Partly Cloudy
4:20 PM 75.2 °F 59.0 °F 57% 30.15 in 6.2 mi WSW 18.4 mph - N/A   Partly Cloudy
4:50 PM 73.4 °F 59.0 °F 61% 30.15 in 6.2 mi WSW 19.6 mph - N/A   Partly Cloudy
5:20 PM 71.6 °F 57.2 °F 60% 30.15 in 6.2 mi West 18.4 mph - N/A   Partly Cloudy
5:50 PM 71.6 °F 55.4 °F 57% 30.15 in 6.2 mi West 12.7 mph - N/A   Partly Cloudy
6:20 PM 71.6 °F 57.2 °F 60% 30.15 in 6.2 mi West 13.8 mph - N/A   Partly Cloudy
7:20 PM 71.6 °F 55.4 °F 57% 30.15 in 6.2 mi WSW 15.0 mph - N/A   Partly Cloudy
7:50 PM 69.8 °F 59.0 °F 68% 30.18 in 6.2 mi West 11.5 mph - N/A   Partly Cloudy
8:20 PM 69.8 °F 57.2 °F 64% 30.18 in 6.2 mi West 12.7 mph - N/A   Partly Cloudy
8:50 PM 68.0 °F 57.2 °F 68% 30.18 in 6.2 mi WSW 10.4 mph - N/A   Partly Cloudy
9:20 PM 68.0 °F 53.6 °F 60% 30.18 in 6.2 mi West 11.5 mph - N/A   Partly Cloudy